STARLINK-33981, 63888

Orbit data source: Space-Track

STARLINK-33981, 63888 is a payload satellite owned by SpaceX/Seattle (US) in LEO that was launched on Sat, 10 May 2025 UTC via an FALCON 9 launch vehicle from the Air Force Western Test Range (AFWTR). Payload-class satellites include a variety of spacecraft equipped with specific instruments for various scientific and technological missions. These include communications satellites like Starlink; space stations such as the ISS; scientific satellites like the Hubble; Earth observation satellites from companies like Planet Labs, Umbra, and HawkEye 360; GPS; miniature CubeSats for education and research; and military/defense satellites.

Loading next visibility...
Identifier
63888, 2025-094AA
Orbit
LEO
Country
Flag of USUS
Related business
Manufacturer
SpaceX/Seattle
Mission
Operational Commercial Communications
Bus & Motor
STARLINK V2MO, Unknown motor
Mass
575 kg wet, ~530 kg dry
Launch date (UTC)
2025-05-10 (1 year ago)
Launch vehicle
FALCON 9
Launch site
Air Force Western Test Range (AFWTR)
Object type
Payload
Rocket body
Debris
Shape & HBR
Box + 2 Pan, 17.7 m
Radar Cross Section
36.964 m², Large (>1 m²)

Expand to show TLE details & history
Last TLE update: 10 hours ago

TLE from 10 hours ago
0 STARLINK-33981
1 63888U 25094AA  26171.44868206  .00003315  00000-0  28545-3 0  9997
2 63888  70.0017 335.4354 0002511 268.7688  91.3183 14.98339016 62592
Epoch: 2026-06-20T10:46Z
TLE epoch observation values (Epoch: 2026-06-20T10:46:06.129Z)
Latitude
-0.00009°
Longitude
-94.75332°
Altitude
574.493 km
Speed
7.574 km/s
True Right ascension
22h 21m 44s
True Declination
0° 00' 00"
Sunlit
Object was in daylight at epoch
Visualization orbit readout
Latitude
Unknown
Longitude
Unknown
Altitude
Unknown
Speed
Unknown
Apparent Right ascension
Unknown
Apparent Declination
Unknown
Sunlit
N/A
Visualization observer readout
Local Sidereal Time
07:18:09
Azimuth
Unknown
Elevation
Unknown
Doppler factor
Unknown
Orbital elements
Apogee altitude
571.721 km
Perigee altitude
568.231 km
Semi-major axis
6,948.113 km
Eccentricity
0.00025
Inclination
70.0017°
RAAN
335.4354°
Arg. of periapsis
268.7688°
True anomaly
91.34707°
Mean anomaly
91.3183°
Eccentric anomaly
91.33268°
Mean motion
3.74751 °/min
Orbital period
96.06 mins
BSTAR
0.00028545
Loading maneuver chart data...
Computing Atmospheric mass density...
Loading historical data...
Loading historical data...
Loading historical data...
Loading historical data...
Loading historical data...
Loading historical data...
Loading historical data...

Documentation

Showing up to 5 results
|